Buffalo, NY
on Friday, December 8, 2017

Friday
       
Previous Day Next Day
Daily Summary
 ActualAverageRecord
Temperature
Mean Temperature °F °C 32°F 0°C  
Max Temperature 31°F -1°C 38°F 3°C 66°F 18°C (1966)
Min Temperature 24°F -4°C 26°F -3°C 2°F -16°C (1906)
Degree Days
Heating Degree Days 37 33  
Month to date heating degree days 222 251  
Since 1 July heating degree days 1337 1584  
Cooling Degree Days 0 0  
Month to date cooling degree days 0 0  
Year to date cooling degree days 603 544  
Moisture
Dew Point 17°F -8°C   
Average Humidity 64    
Maximum Humidity 81    
Minimum Humidity 47    
Precipitation
Precipitation 0.11 in / 2.79 cm 0.12 in / 3.05 cm 1.07 in / 2.72 cm (1937)
Month to date precipitation 0.81 0.99  
Year to date precipitation 46.36 37.58  
Snow
Snow 2.60 in / 6.60 cm 0.70 in / 1.78 cm 11.80 in / 29.97 cm (1937)
Month to date snowfall 4.3 5.2  
Since 1 July snowfall 4.5 14.0  
Snow Depth 2.00 in / 5.08 cm   
Wind
Wind Speed 16 mph / 26 km/h   
Max Wind Speed 30 mph / 48 km/h   
Max Gust Speed 37 mph / 60 km/h   
Visibility 7 miles / 11 kilometers   
Events Fog , Snow   

Key: T is trace of precipitation, MM is missing value
Source: NWS Daily Summary
Time(EST)TemperatureDew PointHumidity Pressure Visibility Wind DirectionWind SpeedGust SpeedPrecipitationEvents Conditions
12:54 AM 28.0°F -2.2°C 12.9°F -10.6°C 53% 29.97 in / 1014.8 hPa 10.0 miles / 16.1 kilometers WSW 10.4 mph / 16.7 km/h - N/A   Overcast
1:54 AM 28.0°F -2.2°C 12.9°F -10.6°C 53% 29.97 in / 1014.8 hPa 10.0 miles / 16.1 kilometers West 8.1 mph / 13.0 km/h - N/A   Overcast
2:54 AM 28.0°F -2.2°C 16.0°F -8.9°C 61% 29.98 in / 1015.1 hPa 10.0 miles / 16.1 kilometers West 11.5 mph / 18.5 km/h - N/A   Overcast
3:54 AM 26.1°F -3.3°C 17.1°F -8.3°C 69% 30.00 in / 1015.7 hPa 10.0 miles / 16.1 kilometers West 10.4 mph / 16.7 km/h - N/A   Overcast
4:54 AM 26.1°F -3.3°C 16.0°F -8.9°C 66% 29.99 in / 1015.6 hPa 10.0 miles / 16.1 kilometers West 15.0 mph / 24.1 km/h 27.6 mph / 44.4 km/h N/A   Overcast
5:54 AM 26.1°F -3.3°C 15.1°F -9.4°C 63% 30.00 in / 1015.7 hPa 10.0 miles / 16.1 kilometers SSW 9.2 mph / 14.8 km/h - N/A   Overcast
5:59 AM 26.1°F -3.3°C 16.0°F -8.9°C 66% 29.96 in / 1014.4 hPa 7.0 miles / 11.3 kilometers SSW 13.8 mph / 22.2 km/h - 0.00 in / 0.0 cm Snow Light Snow
6:05 AM 25.0°F -3.9°C 18.0°F -7.8°C 75% 29.96 in / 1014.4 hPa 1.5 miles / 2.4 kilometers SW 12.7 mph / 20.4 km/h 18.4 mph / 29.6 km/h 0.00 in / 0.0 cm Snow Light Snow
6:08 AM 24.1°F -4.4°C 19.9°F -6.7°C 84% 29.96 in / 1014.4 hPa 0.8 miles / 1.2 kilometers SW 9.2 mph / 14.8 km/h - 0.00 in / 0.0 cm Snow Light Snow
6:16 AM 24.1°F -4.4°C 21.9°F -5.6°C 91% 29.96 in / 1014.4 hPa 0.2 miles / 0.4 kilometers West 4.6 mph / 7.4 km/h - 0.02 in / 0.5 cm Fog , Snow Heavy Snow
6:54 AM 24.1°F -4.4°C 23.0°F -5.0°C 96% 29.99 in / 1015.6 hPa 0.8 miles / 1.2 kilometers Variable 6.9 mph / 11.1 km/h - 0.09 in / 2.3 cm Snow Light Snow
7:02 AM 25.0°F -3.9°C 21.9°F -5.6°C 88% 29.96 in / 1014.4 hPa 1.5 miles / 2.4 kilometers Variable 5.8 mph / 9.3 km/h - 0.00 in / 0.0 cm Snow Light Snow
7:06 AM 25.0°F -3.9°C 21.9°F -5.6°C 88% 29.96 in / 1014.4 hPa 3.0 miles / 4.8 kilometers West 8.1 mph / 13.0 km/h - 0.00 in / 0.0 cm Snow Light Snow
7:28 AM 25.0°F -3.9°C 19.9°F -6.7°C 81% 29.96 in / 1014.4 hPa 2.0 miles / 3.2 kilometers SW 12.7 mph / 20.4 km/h 19.6 mph / 31.5 km/h 0.01 in / 0.3 cm Snow Light Snow
7:33 AM 25.0°F -3.9°C 19.9°F -6.7°C 81% 29.96 in / 1014.4 hPa 1.5 miles / 2.4 kilometers SW 15.0 mph / 24.1 km/h 25.3 mph / 40.7 km/h 0.01 in / 0.3 cm Snow Light Snow
7:41 AM 25.0°F -3.9°C 19.9°F -6.7°C 81% 29.96 in / 1014.4 hPa 0.8 miles / 1.2 kilometers SW 15.0 mph / 24.1 km/h - 0.01 in / 0.3 cm Snow Light Snow
7:54 AM 24.1°F -4.4°C 19.9°F -6.7°C 84% 29.99 in / 1015.6 hPa 0.5 miles / 0.8 kilometers SSW 15.0 mph / 24.1 km/h 24.2 mph / 38.9 km/h 0.01 in / 0.3 cm Fog , Snow Snow
8:22 AM 24.1°F -4.4°C 19.9°F -6.7°C 84% 29.96 in / 1014.4 hPa 1.2 miles / 2.0 kilometers SSW 17.3 mph / 27.8 km/h - 0.00 in / 0.0 cm Snow Light Snow
8:35 AM 25.0°F -3.9°C 19.0°F -7.2°C 78% 29.96 in / 1014.4 hPa 2.0 miles / 3.2 kilometers SSW 18.4 mph / 29.6 km/h - 0.00 in / 0.0 cm Snow Light Snow
8:44 AM 25.0°F -3.9°C 19.0°F -7.2°C 78% 29.97 in / 1014.8 hPa 3.0 miles / 4.8 kilometers SSW 16.1 mph / 25.9 km/h 26.5 mph / 42.6 km/h 0.00 in / 0.0 cm Snow Light Snow
8:54 AM 26.1°F -3.3°C 19.0°F -7.2°C 75% 30.00 in / 1015.7 hPa 3.0 miles / 4.8 kilometers SSW 18.4 mph / 29.6 km/h - 0.00 in / 0.0 cm Snow Light Snow
9:54 AM 26.1°F -3.3°C 18.0°F -7.8°C 71% 29.99 in / 1015.3 hPa 4.0 miles / 6.4 kilometers SSW 20.7 mph / 33.3 km/h 28.8 mph / 46.3 km/h 0.00 in / 0.0 cm Snow Light Snow
10:54 AM 26.1°F -3.3°C 18.0°F -7.8°C 71% 30.00 in / 1015.8 hPa 10.0 miles / 16.1 kilometers SSW 21.9 mph / 35.2 km/h - 0.00 in / 0.0 cm Snow Light Snow
11:54 AM 27.0°F -2.8°C 16.0°F -8.9°C 63% 29.97 in / 1014.8 hPa 10.0 miles / 16.1 kilometers SW 21.9 mph / 35.2 km/h 34.5 mph / 55.6 km/h 0.00 in / 0.0 cm Snow Light Snow
12:41 PM 28.0°F -2.2°C 15.1°F -9.4°C 58% 29.92 in / 1013.1 hPa 10.0 miles / 16.1 kilometers SW 21.9 mph / 35.2 km/h 27.6 mph / 44.4 km/h 0.00 in / 0.0 cm   Mostly Cloudy
12:54 PM 28.9°F -1.7°C 15.1°F -9.4°C 56% 29.94 in / 1013.6 hPa 10.0 miles / 16.1 kilometers SSW 25.3 mph / 40.7 km/h 34.5 mph / 55.6 km/h 0.00 in / 0.0 cm   Scattered Clouds
1:54 PM 28.9°F -1.7°C 12.9°F -10.6°C 51% 29.91 in / 1012.9 hPa 10.0 miles / 16.1 kilometers SW 23.0 mph / 37.0 km/h 29.9 mph / 48.2 km/h N/A   Partly Cloudy
2:54 PM 30.0°F -1.1°C 12.0°F -11.1°C 47% 29.91 in / 1012.9 hPa 10.0 miles / 16.1 kilometers SW 19.6 mph / 31.5 km/h 27.6 mph / 44.4 km/h N/A   Partly Cloudy
3:54 PM 30.9°F -0.6°C 12.9°F -10.6°C 47% 29.90 in / 1012.4 hPa 10.0 miles / 16.1 kilometers SW 19.6 mph / 31.5 km/h 28.8 mph / 46.3 km/h N/A   Partly Cloudy
4:54 PM 30.0°F -1.1°C 14.0°F -10.0°C 51% 29.91 in / 1012.6 hPa 10.0 miles / 16.1 kilometers SSW 13.8 mph / 22.2 km/h - N/A   Partly Cloudy
5:54 PM 30.0°F -1.1°C 12.9°F -10.6°C 49% 29.92 in / 1013.1 hPa 10.0 miles / 16.1 kilometers SSW 13.8 mph / 22.2 km/h 23.0 mph / 37.0 km/h N/A   Mostly Cloudy
6:54 PM 28.9°F -1.7°C 12.9°F -10.6°C 51% 29.92 in / 1013.2 hPa 10.0 miles / 16.1 kilometers SSW 18.4 mph / 29.6 km/h - N/A   Mostly Cloudy
7:54 PM 28.0°F -2.2°C 14.0°F -10.0°C 56% 29.92 in / 1013.2 hPa 10.0 miles / 16.1 kilometers SSW 16.1 mph / 25.9 km/h 24.2 mph / 38.9 km/h N/A   Mostly Cloudy
8:54 PM 28.0°F -2.2°C 12.9°F -10.6°C 53% 29.92 in / 1013.1 hPa 10.0 miles / 16.1 kilometers SSW 16.1 mph / 25.9 km/h - N/A   Overcast
9:54 PM 28.0°F -2.2°C 14.0°F -10.0°C 56% 29.92 in / 1013.1 hPa 10.0 miles / 16.1 kilometers SSW 17.3 mph / 27.8 km/h - N/A   Overcast
10:54 PM 28.0°F -2.2°C 14.0°F -10.0°C 56% 29.92 in / 1013.1 hPa 10.0 miles / 16.1 kilometers SSW 15.0 mph / 24.1 km/h - N/A   Overcast
11:54 PM 28.0°F -2.2°C 15.1°F -9.4°C 58% 29.92 in / 1013.0 hPa 10.0 miles / 16.1 kilometers SSW 13.8 mph / 22.2 km/h - N/A   Overcast